GW4911 Weather Reports


time (UTC)temp
C
wind
direction
speed
KPH
gust
KPH
rain 1hr
cm
rain 24hr
cm
rain mn
cm
humidity
%
barometer
mb
20260507161907 9 272 6.4 14.5 0.00 0.00 0.00 37 1011.9
20260507161403 9 280 1.6 3.2 0.00 0.00 0.00 40 1011.8
20260507160900 10 349 6.4 6.4 0.00 0.00 0.00 38 1012.0
20260507160355 10 10 4.8 9.7 0.00 0.00 0.00 38 1012.1
20260507155852 10 10 1.6 11.3 0.00 0.00 0.00 40 1012.1
20260507155348 10 334 3.2 4.8 0.00 0.00 0.00 38 1011.9
20260507154845 10 130 1.6 9.7 0.00 0.00 0.00 38 1011.9
20260507154342 10 1 3.2 6.4 0.00 0.00 0.00 38 1012.2
20260507153839 10 296 1.6 6.4 0.00 0.00 0.00 42 1012.2
20260507153335 9 309 0.0 3.2 0.00 0.00 0.00 43 1012.0
20260507152832 9 251 1.6 6.4 0.00 0.00 0.00 44 1012.1
20260507152328 8 289 3.2 9.7 0.00 0.00 0.00 46 1012.1
20260507151825 8 351 4.8 12.9 0.00 0.00 0.00 43 1011.9
20260507151321 8 231 3.2 4.8 0.00 0.00 0.00 44 1012.2
20260507150818 8 267 1.6 9.7 0.00 0.00 0.00 42 1012.2
20260507150314 9 216 1.6 3.2 0.00 0.00 0.00 42 1012.2
20260507145810 8 252 0.0 4.8 0.00 0.00 0.00 43 1012.3
20260507145307 8 335 1.6 9.7 0.00 0.00 0.00 44 1012.1
20260507144804 9 235 1.6 3.2 0.00 0.00 0.00 43 1012.3
20260507144301 7 251 1.6 3.2 0.00 0.00 0.00 51 1012.3
20260507143758 9 292 1.6 4.8 0.00 0.00 0.00 46 1012.3
20260507143255 8 276 1.6 4.8 0.00 0.00 0.00 45 1012.2
20260507142751 8 350 0.0 4.8 0.00 0.00 0.00 52 1012.4
20260507142248 7 187 0.0 4.8 0.00 0.00 0.00 49 1012.3
20260507141744 7 270 4.8 6.4 0.00 0.00 0.00 50 1012.4
20260507141241 7 234 4.8 6.4 0.00 0.00 0.00 51 1012.3
20260507140737 7 239 3.2 3.2 0.00 0.00 0.00 51 1012.3
20260507140235 7 289 6.4 6.4 0.00 0.00 0.00 52 1012.4
20260507135732 7 270 1.6 3.2 0.00 0.00 0.00 53 1012.6
20260507135229 6 310 4.8 9.7 0.00 0.00 0.00 54 1012.5
20260507134725 6 291 3.2 6.4 0.00 0.00 0.00 55 1012.4
20260507134222 6 211 3.2 9.7 0.00 0.00 0.00 55 1012.6
20260507133718 6 254 3.2 4.8 0.00 0.00 0.00 58 1012.4
20260507133215 6 206 6.4 6.4 0.00 0.00 0.00 55 1012.6
20260507132712 7 208 1.6 3.2 0.00 0.00 0.00 57 1012.4
20260507132208 7 276 0.0 1.6 0.00 0.00 0.00 57 1012.5
20260507131705 6 140 0.0 0.0 0.00 0.00 0.00 60 1012.7
20260507131203 6 114 1.6 3.2 0.00 0.00 0.00 63 1012.6
20260507130659 6 103 0.0 3.2 0.00 0.00 0.00 64 1012.5
20260507130157 5 144 1.6 1.6 0.00 0.00 0.00 66 1012.6
20260507125656 5 254 0.0 1.6 0.00 0.00 0.00 68 1012.5
20260507125153 4 112 1.6 1.6 0.00 0.00 0.00 68 1012.8
20260507124649 5 244 0.0 1.6 0.00 0.00 0.00 67 1012.7
20260507124147 3 237 0.0 1.6 0.00 0.00 0.00 70 1012.6
20260507123645 3 250 0.0 1.6 0.00 0.00 0.00 70 1012.8
20260507123142 3 222 0.0 0.0 0.00 0.00 0.00 74 1012.6
20260507122637 3 222 0.0 0.0 0.00 0.00 0.00 76 1012.6
20260507122133 2 222 0.0 0.0 0.00 0.00 0.00 75 1012.7
20260507121629 2 222 0.0 0.0 0.00 0.00 0.00 75 1012.7
20260507121125 2 238 0.0 0.0 0.00 0.00 0.00 75 1012.7
20260507120621 2 242 0.0 0.0 0.00 0.00 0.00 75 1012.7
20260507120118 2 241 0.0 0.0 0.00 0.00 0.00 76 1012.5
20260507115615 2 218 0.0 0.0 0.00 0.00 0.00 75 1012.6
20260507115110 2 218 0.0 0.0 0.00 0.00 0.00 77 1012.6
20260507114606 2 224 0.0 0.0 0.00 0.00 0.00 77 1012.5
20260507114104 2 236 0.0 0.0 0.00 0.00 0.00 76 1012.5
20260507113601 2 230 0.0 0.0 0.00 0.00 0.00 77 1012.5
20260507113058 1 236 0.0 0.0 0.00 0.00 0.00 78 1012.6
20260507112556 1 238 0.0 0.0 0.00 0.00 0.00 78 1012.4
20260507112052 1 249 1.6 1.6 0.00 0.00 0.00 78 1012.3
20260507111549 1 283 1.6 3.2 0.00 0.00 0.00 78 1012.4
20260507111046 1 258 0.0 0.0 0.00 0.00 0.00 78 1012.4
20260507110542 1 270 0.0 0.0 0.00 0.00 0.00 77 1012.6
20260507110039 1 245 0.0 0.0 0.00 0.00 0.00 77 1012.5
20260507105536 1 245 0.0 0.0 0.00 0.00 0.00 76 1012.5
20260507105032 1 245 0.0 0.0 0.00 0.00 0.00 76 1012.5
20260507104530 1 251 0.0 0.0 0.00 0.00 0.00 75 1012.5
20260507104026 2 253 0.0 0.0 0.00 0.00 0.00 75 1012.6
20260507103522 2 253 0.0 1.6 0.00 0.00 0.00 74 1012.6
20260507103019 2 247 0.0 0.0 0.00 0.00 0.00 74 1012.6
20260507102515 2 270 0.0 1.6 0.00 0.00 0.00 74 1012.6
20260507102011 2 257 0.0 1.6 0.00 0.00 0.00 74 1012.6
20260507101507 1 266 1.6 1.6 0.00 0.00 0.00 75 1012.8
20260507101004 2 266 0.0 1.6 0.00 0.00 0.00 75 1012.6
20260507100501 1 260 1.6 3.2 0.00 0.00 0.00 75 1012.5
20260507095959 1 275 0.0 0.0 0.00 0.00 0.00 76 1012.7
20260507095457 1 262 0.0 0.0 0.00 0.00 0.00 77 1012.4
20260507094953 1 257 0.0 0.0 0.00 0.00 0.00 78 1012.6
20260507094449 1 258 0.0 0.0 0.00 0.00 0.00 79 1012.7
20260507093947 1 254 0.0 0.0 0.00 0.00 0.00 81 1012.7
20260507093444 1 259 0.0 0.0 0.00 0.00 0.00 82 1012.5
20260507092942 1 255 0.0 1.6 0.00 0.00 0.00 82 1012.7
20260507092438 1 276 0.0 0.0 0.00 0.00 0.00 82 1012.5
20260507091935 1 248 0.0 0.0 0.00 0.00 0.00 78 1012.5
20260507091432 1 198 0.0 0.0 0.00 0.00 0.00 78 1012.7
20260507090927 1 188 0.0 0.0 0.00 0.00 0.00 78 1012.5
20260507090424 1 183 0.0 0.0 0.00 0.00 0.00 79 1012.6
20260507085921 1 166 0.0 1.6 0.00 0.00 0.00 79 1012.5
20260507085418 1 125 0.0 0.0 0.00 0.00 0.00 78 1012.6
20260507084915 1 125 0.0 0.0 0.00 0.00 0.00 77 1012.6
20260507084411 1 125 0.0 0.0 0.00 0.00 0.00 77 1012.6
20260507083909 1 125 0.0 0.0 0.00 0.00 0.00 77 1012.5
20260507083405 1 125 0.0 0.0 0.00 0.00 0.00 78 1012.6
20260507082901 1 125 0.0 1.6 0.00 0.00 0.00 79 1012.6
20260507082357 1 128 0.0 0.0 0.00 0.00 0.00 79 1012.7
20260507081854 1 128 0.0 0.0 0.00 0.00 0.00 77 1012.5
20260507081350 1 128 0.0 0.0 0.00 0.00 0.00 76 1012.4
20260507080847 1 128 0.0 0.0 0.00 0.00 0.00 75 1012.6
20260507080343 1 128 0.0 0.0 0.00 0.00 0.00 74 1012.4
20260507075839 1 134 1.6 1.6 0.00 0.00 0.00 78 1012.4
20260507075335 1 239 0.0 0.0 0.00 0.00 0.00 75 1012.6
20260507074832 1 239 0.0 0.0 0.00 0.00 0.00 72 1012.3
20260507074329 1 239 0.0 0.0 0.00 0.00 0.00 71 1012.5
20260507073826 1 252 0.0 0.0 0.00 0.00 0.00 73 1012.5
20260507073323 1 253 0.0 0.0 0.00 0.00 0.00 73 1012.6
20260507072820 1 253 0.0 0.0 0.00 0.00 0.00 73 1012.5
20260507072317 1 253 0.0 0.0 0.00 0.00 0.00 74 1012.7
20260507071815 1 253 0.0 0.0 0.00 0.00 0.00 72 1012.8
20260507071311 1 253 0.0 0.0 0.00 0.00 0.00 71 1012.7
20260507070808 2 253 0.0 0.0 0.00 0.00 0.00 70 1013.0
20260507070305 2 253 0.0 0.0 0.00 0.00 0.00 68 1013.1
20260507065802 2 253 0.0 0.0 0.00 0.00 0.00 66 1012.9
20260507065258 3 253 0.0 0.0 0.00 0.00 0.00 64 1013.0
20260507064756 3 253 0.0 0.0 0.00 0.00 0.00 64 1012.9
20260507064254 3 253 0.0 1.6 0.00 0.00 0.00 64 1013.0
20260507063752 3 241 0.0 0.0 0.00 0.00 0.00 63 1013.2
20260507063248 3 241 0.0 0.0 0.00 0.00 0.00 61 1013.1
20260507062745 3 236 0.0 1.6 0.00 0.00 0.00 60 1013.1
20260507062242 3 241 0.0 1.6 0.00 0.00 0.00 60 1013.2
20260507061741 3 247 1.6 1.6 0.00 0.00 0.00 60 1013.3
20260507061238 3 286 1.6 3.2 0.00 0.00 0.00 61 1013.4
20260507060736 4 252 0.0 0.0 0.00 0.00 0.00 61 1013.4
20260507060232 4 250 0.0 0.0 0.00 0.00 0.00 60 1013.3
20260507055729 4 238 0.0 1.6 0.00 0.00 0.00 60 1013.4
20260507055224 4 269 0.0 1.6 0.00 0.00 0.00 60 1013.4
20260507054720 4 283 1.6 1.6 0.00 0.00 0.00 59 1013.6
20260507054218 4 249 0.0 3.2 0.00 0.00 0.00 58 1013.5
20260507053715 4 261 0.0 1.6 0.00 0.00 0.00 58 1013.5
20260507053213 4 258 0.0 1.6 0.00 0.00 0.00 58 1013.4
20260507052712 5 257 0.0 1.6 0.00 0.00 0.00 59 1013.5
20260507052207 4 282 0.0 1.6 0.00 0.00 0.00 60 1013.4
20260507051705 5 249 1.6 1.6 0.00 0.00 0.00 60 1013.4
20260507051202 5 270 0.0 1.6 0.00 0.00 0.00 59 1013.6
20260507050658 5 277 1.6 3.2 0.00 0.00 0.00 58 1013.5
20260507050155 5 245 1.6 1.6 0.00 0.00 0.00 59 1013.6
20260507045652 5 274 0.0 1.6 0.00 0.00 0.00 59 1013.6
20260507045149 5 276 1.6 3.2 0.00 0.00 0.00 59 1013.7
20260507044646 5 275 0.0 0.0 0.00 0.00 0.00 60 1013.6
20260507044142 5 243 1.6 1.6 0.00 0.00 0.00 59 1013.6
20260507043638 5 232 0.0 3.2 0.00 0.00 0.00 59 1013.6
20260507043136 5 254 0.0 0.0 0.00 0.00 0.00 58 1013.7
20260507042632 5 262 0.0 0.0 0.00 0.00 0.00 57 1013.9
20260507042127 5 293 0.0 1.6 0.00 0.00 0.00 57 1013.7
20260507041624 5 258 1.6 1.6 0.00 0.00 0.00 57 1013.7
20260507041121 5 351 1.6 1.6 0.00 0.00 0.00 57 1013.9
20260507040618 5 269 0.0 0.0 0.00 0.00 0.00 57 1014.0
20260507040114 5 295 1.6 1.6 0.00 0.00 0.00 57 1014.1
20260507035610 5 295 0.0 4.8 0.00 0.00 0.00 56 1014.2
20260507035107 5 328 0.0 0.0 0.00 0.00 0.00 57 1014.0
20260507034604 5 269 0.0 1.6 0.00 0.00 0.00 56 1014.0
20260507034102 5 235 0.0 1.6 0.00 0.00 0.00 56 1014.0
20260507033559 5 264 3.2 4.8 0.00 0.00 0.00 56 1013.9
20260507033056 5 276 0.0 1.6 0.00 0.00 0.00 56 1014.0
20260507032553 5 257 0.0 0.0 0.00 0.00 0.00 55 1014.0
20260507032049 5 244 1.6 3.2 0.00 0.00 0.00 54 1014.1
20260507031546 5 270 1.6 1.6 0.00 0.00 0.00 55 1014.0
20260507031043 5 286 0.0 1.6 0.00 0.00 0.00 55 1014.1
20260507030539 5 298 3.2 6.4 0.00 0.00 0.00 54 1014.2
20260507030037 5 253 1.6 1.6 0.00 0.00 0.00 55 1014.2
20260507025534 5 313 3.2 6.4 0.00 0.00 0.00 54 1014.2
20260507025032 5 251 0.0 3.2 0.00 0.00 0.00 54 1014.2
20260507024529 5 242 3.2 4.8 0.00 0.00 0.00 53 1014.3
20260507024026 6 277 0.0 3.2 0.00 0.00 0.00 53 1014.2
20260507023521 5 254 1.6 3.2 0.00 0.00 0.00 53 1014.3
20260507023020 5 279 6.4 6.4 0.00 0.00 0.00 53 1014.2
20260507022516 5 250 3.2 4.8 0.00 0.00 0.00 54 1014.5
20260507022011 5 244 0.0 0.0 0.00 0.00 0.00 54 1014.4
20260507021508 5 224 0.0 0.0 0.00 0.00 0.00 56 1014.5
20260507021004 5 237 0.0 0.0 0.00 0.00 0.00 54 1014.2
20260507020501 5 237 0.0 0.0 0.00 0.00 0.00 54 1014.3
20260507015958 5 237 0.0 0.0 0.00 0.00 0.00 53 1014.1
20260507015457 5 264 0.0 1.6 0.00 0.00 0.00 52 1014.2
20260507014954 5 288 0.0 1.6 0.00 0.00 0.00 52 1014.3
20260507014450 5 252 0.0 1.6 0.00 0.00 0.00 52 1014.3
20260507013946 5 256 0.0 1.6 0.00 0.00 0.00 52 1014.3
20260507013443 5 289 0.0 0.0 0.00 0.00 0.00 53 1014.3
20260507012940 5 254 1.6 1.6 0.00 0.00 0.00 52 1014.2
20260507012437 6 278 0.0 1.6 0.00 0.00 0.00 52 1014.2
20260507011934 6 248 0.0 1.6 0.00 0.00 0.00 51 1014.3
20260507011432 6 249 3.2 3.2 0.00 0.00 0.00 51 1014.2
20260507010931 6 279 0.0 1.6 0.00 0.00 0.00 51 1014.2
20260507010426 6 253 1.6 3.2 0.00 0.00 0.00 52 1014.2
20260507005924 6 258 0.0 0.0 0.00 0.00 0.00 52 1014.2
20260507005421 6 302 0.0 0.0 0.00 0.00 0.00 52 1014.2
20260507004917 6 231 3.2 3.2 0.00 0.00 0.00 50 1014.2
20260507004414 6 260 1.6 4.8 0.00 0.00 0.00 51 1014.2
20260507003911 6 278 1.6 3.2 0.00 0.00 0.00 50 1014.3
20260507003406 6 331 1.6 4.8 0.00 0.00 0.00 51 1014.3
20260507002902 6 277 1.6 3.2 0.00 0.00 0.00 50 1014.6
20260507002358 6 293 1.6 4.8 0.00 0.00 0.00 51 1014.5
20260507001856 6 256 4.8 9.7 0.00 0.00 0.00 49 1014.4
20260507001352 6 309 0.0 4.8 0.00 0.00 0.00 51 1014.6
20260507000849 6 279 3.2 3.2 0.00 0.00 0.00 50 1014.3
20260507000344 6 306 3.2 3.2 0.00 0.00 0.00 50 1014.5
20260506235841 6 296 8.0 11.3 0.00 0.00 0.00 50 1014.5
20260506235338 6 287 4.8 11.3 0.00 0.00 0.00 51 1014.4
20260506234834 6 74 3.2 9.7 0.00 0.00 0.00 50 1014.7
20260506234332 6 270 3.2 4.8 0.00 0.00 0.00 50 1014.7
20260506233829 6 301 3.2 9.7 0.00 0.00 0.00 49 1014.6
20260506233325 6 308 3.2 4.8 0.00 0.00 0.00 50 1014.6
20260506232822 6 0 4.8 6.4 0.00 0.00 0.00 50 1014.7
20260506232317 6 301 1.6 4.8 0.00 0.00 0.00 50 1014.6
20260506231814 6 292 8.0 9.7 0.00 0.00 0.00 49 1014.7
20260506231312 6 291 1.6 4.8 0.00 0.00 0.00 53 1014.6
20260506230809 6 328 0.0 3.2 0.00 0.00 0.00 52 1014.6
20260506230306 6 225 9.7 12.9 0.00 0.00 0.00 49 1014.8
20260506225802 6 281 6.4 9.7 0.00 0.00 0.00 49 1014.7
20260506225259 6 311 6.4 16.1 0.00 0.00 0.00 50 1014.9
20260506224756 6 290 8.0 9.7 0.00 0.00 0.00 51 1014.8
20260506224254 6 337 6.4 11.3 0.00 0.00 0.00 49 1014.8
20260506223750 6 283 6.4 14.5 0.00 0.00 0.00 51 1014.6
20260506223246 6 234 8.0 12.9 0.00 0.00 0.00 49 1014.9
20260506222743 6 300 0.0 3.2 0.00 0.00 0.00 51 1014.8
20260506222238 6 257 6.4 6.4 0.00 0.00 0.00 50 1014.9
20260506221736 6 326 6.4 9.7 0.00 0.00 0.00 53 1014.9
20260506221234 6 289 1.6 4.8 0.00 0.00 0.00 52 1014.9
20260506220731 6 272 6.4 14.5 0.00 0.00 0.00 50 1015.1
20260506220226 6 334 4.8 9.7 0.00 0.00 0.00 51 1014.9
20260506215723 6 334 3.2 4.8 0.00 0.00 0.00 51 1015.0
20260506215218 6 287 0.0 4.8 0.00 0.00 0.00 52 1015.1
20260506214715 6 303 4.8 6.4 0.00 0.00 0.00 52 1015.1
20260506214212 6 288 4.8 12.9 0.00 0.00 0.00 50 1015.2
20260506213711 6 325 3.2 9.7 0.00 0.00 0.00 52 1015.1
20260506213208 6 270 4.8 12.9 0.00 0.00 0.00 52 1015.3
20260506212705 6 260 8.0 11.3 0.00 0.00 0.00 51 1015.3
20260506212200 6 230 8.0 14.5 0.00 0.00 0.00 52 1015.4
20260506211655 6 240 8.0 12.9 0.00 0.00 0.00 51 1015.3
20260506211152 6 305 4.8 12.9 0.00 0.00 0.00 52 1015.3
20260506210649 6 331 1.6 9.7 0.00 0.00 0.00 52 1015.3
20260506210146 6 285 1.6 6.4 0.00 0.00 0.00 52 1015.3
20260506205643 6 292 4.8 12.9 0.00 0.00 0.00 51 1015.4
20260506205138 6 38 1.6 11.3 0.00 0.00 0.00 51 1015.3
20260506204636 6 293 3.2 9.7 0.00 0.00 0.00 52 1015.3
20260506204132 6 246 6.4 11.3 0.00 0.00 0.00 50 1015.4
20260506203631 6 273 4.8 9.7 0.00 0.00 0.00 52 1015.3
20260506203127 6 257 11.3 14.5 0.00 0.00 0.00 49 1015.3
20260506202625 6 275 3.2 9.7 0.00 0.00 0.00 51 1015.4
20260506202121 6 295 8.0 14.5 0.00 0.00 0.00 52 1015.5
20260506201618 6 326 8.0 12.9 0.00 0.00 0.00 49 1015.5
20260506201115 6 314 6.4 14.5 0.00 0.00 0.00 51 1015.5
20260506200611 6 275 6.4 14.5 0.00 0.00 0.00 51 1015.4
20260506200108 6 280 4.8 11.3 0.00 0.00 0.00 51 1015.4
20260506195605 5 8 3.2 12.9 0.00 0.00 0.00 52 1015.5
20260506195101 6 356 14.5 16.1 0.00 0.00 0.00 49 1015.5
20260506194559 6 286 8.0 12.9 0.00 0.00 0.00 52 1015.5
20260506194055 6 217 3.2 14.5 0.00 0.00 0.00 54 1015.5
20260506193553 5 234 6.4 11.3 0.00 0.00 0.00 51 1015.5
20260506193050 6 295 9.7 11.3 0.00 0.00 0.00 52 1015.5
20260506192547 5 289 3.2 6.4 0.00 0.00 0.00 51 1015.6
20260506192042 5 298 6.4 14.5 0.00 0.00 0.00 52 1015.6
20260506191539 6 336 3.2 11.3 0.00 0.00 0.00 52 1015.6
20260506191035 5 290 8.0 11.3 0.00 0.00 0.00 52 1015.6
20260506190533 5 234 3.2 4.8 0.00 0.00 0.00 56 1015.6
20260506190030 6 314 6.4 9.7 0.00 0.00 0.00 53 1015.8
20260506185527 5 322 6.4 9.7 0.00 0.00 0.00 54 1015.5
20260506185023 5 317 1.6 16.1 0.00 0.00 0.00 56 1015.7
20260506184520 5 235 8.0 12.9 0.00 0.00 0.00 55 1015.7
20260506184018 5 308 4.8 11.3 0.00 0.00 0.00 56 1015.6
20260506183513 5 223 4.8 6.4 0.00 0.00 0.00 56 1015.7
20260506183010 5 345 6.4 12.9 0.00 0.00 0.00 54 1015.7
20260506182507 5 290 8.0 14.5 0.00 0.00 0.00 54 1015.9
20260506182004 5 277 4.8 4.8 0.00 0.00 0.00 56 1015.7
20260506181503 5 295 11.3 14.5 0.00 0.00 0.00 55 1015.6
20260506180959 5 286 8.0 14.5 0.00 0.00 0.00 54 1015.7
20260506180456 5 217 6.4 9.7 0.00 0.00 0.00 56 1015.9
20260506175952 5 285 9.7 11.3 0.00 0.00 0.00 54 1015.6
20260506175449 5 298 3.2 4.8 0.00 0.00 0.00 57 1015.7
20260506174945 4 332 1.6 9.7 0.00 0.00 0.00 55 1015.9
20260506174444 5 348 6.4 6.4 0.00 0.00 0.00 57 1016.0
20260506173940 4 282 3.2 9.7 0.00 0.00 0.00 57 1015.8
20260506173437 4 267 8.0 12.9 0.00 0.00 0.00 58 1015.7
20260506172934 4 281 8.0 9.7 0.00 0.00 0.00 57 1016.0
20260506172432 4 223 9.7 12.9 0.00 0.00 0.00 56 1015.9
20260506171928 4 301 9.7 11.3 0.00 0.00 0.00 56 1015.7
20260506171426 4 330 6.4 12.9 0.00 0.00 0.00 57 1016.0
20260506170923 4 302 8.0 14.5 0.00 0.00 0.00 56 1015.8
20260506170419 4 201 3.2 9.7 0.00 0.00 0.00 56 1016.0
20260506165918 4 281 8.0 11.3 0.00 0.00 0.00 57 1016.0
20260506165416 4 255 9.7 12.9 0.00 0.00 0.00 57 1016.0
20260506164912 4 268 3.2 6.4 0.00 0.00 0.00 57 1015.7
20260506164409 4 297 3.2 14.5 0.00 0.00 0.00 58 1016.0
20260506163908 4 261 9.7 11.3 0.00 0.00 0.00 56 1015.8
20260506163407 4 248 4.8 6.4 0.00 0.00 0.00 58 1015.9
20260506162902 4 27 4.8 9.7 0.00 0.00 0.00 58 1015.8
20260506162400 4 17 3.2 12.9 0.00 0.00 0.00 57 1015.8